Location: Leeds
(37.2390°N, 113.3580°W)
Time: 00:59:24
(UTC-07:00)

ISS - All Passes

Search period start: 20 January 2017 00:00
Search period end: 30 January 2017 00:00
Orbit: 399 x 410 km, 51.6° (Epoch: 20 January)

Date Brightness Start Highest point End Pass type
(mag) Time Alt. Az. Time Alt. Az. Time Alt. Az.
20 Jan - 04:35:23 10° NNW 04:38:00 22° NNE 04:40:37 10° E visible
20 Jan - 06:11:31 10° WNW 06:14:34 38° SW 06:17:37 10° SSE visible
20 Jan - 21:14:27 10° S 21:16:38 17° SE 21:18:49 10° E night (unlit)
20 Jan - 22:49:46 10° WSW 22:52:52 41° NW 22:55:59 10° NE night (unlit)
21 Jan - 03:43:39 10° NNW 03:45:34 15° NNE 03:47:29 10° ENE night (unlit)
21 Jan - 05:19:11 10° NW 05:22:26 85° SW 05:25:40 10° SE visible
21 Jan - 21:57:22 10° SW 22:00:37 84° NW 22:03:54 10° NE night (unlit)
21 Jan - 23:35:45 10° WNW 23:37:32 14° NNW 23:39:18 10° N night (unlit)
22 Jan - 02:52:22 10° N 02:53:03 10° NNE 02:53:45 10° NNE night (unlit)
22 Jan - 04:27:03 10° NW 04:30:11 46° NE 04:33:20 10° ESE visible
22 Jan - 06:04:28 10° W 06:06:23 15° SW 06:08:17 10° SSW visible
22 Jan - 21:05:20 10° SSW 21:08:27 44° SE 21:11:34 10° ENE night (unlit)
22 Jan - 22:42:32 10° W 22:45:04 20° NNW 22:47:35 10° NNE night (unlit)
23 Jan - 03:35:04 10° NNW 03:37:51 26° NNE 03:40:39 10° E night (unlit)
23 Jan - 05:11:27 10° WNW 05:14:19 29° SW 05:17:12 10° SSE visible
23 Jan - 20:13:47 10° S 20:16:20 21° SE 20:18:54 10° E visible
23 Jan - 21:49:40 10° W 21:52:40 33° NW 21:55:40 10° NNE night (unlit)
24 Jan - 02:43:13 10° NNW 02:45:25 17° NNE 02:47:38 10° ENE night (unlit)
24 Jan - 04:18:57 10° NW 04:22:11 64° SW 04:25:23 10° SE night (unlit)
24 Jan - 19:23:31 10° SE 19:24:17 11° SE 19:25:04 10° ESE visible
24 Jan - 20:57:07 10° WSW 21:00:21 64° NW 21:03:35 10° NE night (unlit)
24 Jan - 22:35:57 10° NW 22:37:21 12° NNW 22:38:46 10° N night (unlit)
25 Jan - 01:51:38 10° N 01:52:54 12° NNE 01:54:10 10° NE night (unlit)
25 Jan - 03:26:43 10° NW 03:29:56 59° NE 03:33:08 10° ESE night (unlit)
25 Jan - 05:04:54 10° WSW 05:06:01 11° SW 05:07:08 10° SSW night (unlit)
25 Jan - 20:04:54 10° SW 20:08:07 59° SE 20:11:20 10° ENE visible
25 Jan - 21:42:32 10° WNW 21:44:50 18° NNW 21:47:08 10° NNE night (unlit)
26 Jan - 02:34:38 10° NNW 02:37:35 31° NNE 02:40:32 10° E night (unlit)
26 Jan - 04:11:19 10° WNW 04:13:57 23° SW 04:16:35 10° S night (unlit)
26 Jan - 19:13:06 10° SSW 19:15:57 27° SE 19:18:46 10° ENE visible
26 Jan - 20:49:30 10° W 20:52:22 27° NNW 20:55:14 10° NNE visible
27 Jan - 01:42:43 10° NNW 01:45:09 19° NNE 01:47:35 10° ENE night (unlit)
27 Jan - 03:18:39 10° WNW 03:21:48 48° SW 03:24:55 10° SSE night (unlit)
27 Jan - 18:22:04 10° SSE 18:23:50 14° SE 18:25:36 10° E visible
27 Jan - 19:56:48 10° WSW 19:59:59 50° NW 20:03:11 10° NE visible
27 Jan - 21:36:08 10° NW 21:37:05 11° NNW 21:38:02 10° N night (unlit)
28 Jan - 00:50:57 10° N 00:52:37 13° NNE 00:54:16 10° NE night (unlit)
28 Jan - 02:26:18 10° NW 02:29:33 77° NE 02:32:47 10° SE night (unlit)
28 Jan - 19:04:25 10° SW 19:07:40 78° SE 19:10:56 10° NE visible
28 Jan - 20:42:27 10° WNW 20:44:29 15° NNW 20:46:32 10° NNE visible
29 Jan - 01:34:08 10° NW 01:37:12 38° NE 01:40:15 10° ESE night (unlit)
29 Jan - 03:11:10 10° W 03:13:27 18° SW 03:15:44 10° S night (unlit)
29 Jan - 18:12:24 10° SSW 18:15:25 35° SE 18:18:27 10° ENE daylight
29 Jan - 19:49:16 10° W 19:51:58 23° NNW 19:54:39 10° NNE visible
